RH
31 29 27 28 27 25 25 24 23 23 23 23 22 19 16 14 11 13 16 16 15 14 13 13 12 12 10 10 9 9 11 13 15 17 17 12 8 7 7 7 6 7 9 9 11 17 22 24 27 26 30 35 40 42 38 38 41 41 41 46 49 52 59 58 56 62 61 61 63 69 87 91 82 77 71 64 61 63 66 69 70 68 64 63 63 63 65 69
28 26 27 27 25 24 24 23 22 23 24 23 20 17 14 12 13 17 17 16 14 14 14 13 12 11 10 10 10 12 13 15 17 18 16 10 8 7 6 6 7 10 13 14 19 26 29 32 33 32 37 41 42 40 34 34 40 40 40 45 49 50 55 58 61 64 63 65 70 79 86 83 78 76 73 65 58 57 61 69 72 69 68 67 64 62 64 68
25 25 25 24 23 22 22 22 23 25 24 21 17 14 13 14 17 17 15 15 14 14 13 12 11 11 12 11 13 15 16 19 19 15 12 10 9 8 8 9 12 15 17 19 26 32 35 37 37 36 41 41 41 43 40 40 40 41 44 49 52 53 54 58 63 65 66 68 72 76 74 75 75 71 73 68 61 62 65 70 72 69 70 68 64 63 65 66
24 25 25 22 22 22 23 24 25 25 22 18 15 13 15 18 18 16 14 14 13 13 13 13 12 12 13 13 15 17 20 22 18 14 13 12 10 9 11 13 16 20 22 25 29 35 37 40 41 39 42 44 45 47 48 48 43 45 51 52 54 57 59 66 69 66 66 66 69 75 73 70 70 74 81 74 69 73 75 75 71 69 70 68 66 65 65 66
27 26 25 24 25 24 25 26 25 24 20 16 15 16 18 17 15 14 13 13 13 14 14 14 13 13 15 17 19 22 27 23 14 14 15 14 13 12 14 17 21 25 28 30 33 37 39 42 44 42 43 47 51 50 51 51 48 52 54 53 54 55 61 70 68 61 62 65 68 75 76 68 70 82 86 79 77 81 83 82 76 71 70 69 68 68 67 66
30 28 27 27 26 26 27 27 25 22 18 17 18 19 17 14 13 12 11 13 15 15 15 15 15 16 17 19 20 24 28 20 13 16 16 16 16 15 18 22 26 30 31 33 37 40 41 44 45 45 46 48 50 50 52 53 53 60 61 58 57 57 64 66 62 61 61 64 67 72 76 73 75 80 78 78 81 79 81 83 78 72 69 70 69 66 66 66
31 29 29 28 28 27 27 26 24 21 19 20 19 16 14 12 11 11 12 15 15 16 16 15 16 17 17 18 19 22 24 18 15 18 17 18 18 17 20 24 28 32 33 35 41 44 43 44 44 46 50 51 50 49 50 53 57 66 73 69 60 61 69 63 59 62 64 67 68 72 79 78 75 73 72 77 80 76 76 76 74 71 70 71 68 65 66 66
32 31 30 29 29 28 27 26 23 21 21 20 15 13 11 11 10 11 13 15 15 16 16 16 17 17 20 21 23 26 23 18 17 18 18 19 18 19 21 24 28 32 33 36 41 44 43 43 43 45 52 53 51 50 49 54 60 65 75 77 69 64 64 58 57 60 64 68 66 70 78 76 70 67 68 73 75 76 75 73 71 71 72 71 68 66 65 63
33 33 31 30 29 28 28 27 24 22 19 14 12 11 10 9 10 12 14 14 15 16 16 17 18 19 22 24 30 31 22 18 18 18 19 19 19 20 21 23 27 30 32 34 38 42 43 44 44 46 51 51 50 50 47 53 60 59 70 84 80 67 59 57 58 59 63 64 63 69 76 75 69 65 68 71 70 72 75 74 71 70 72 70 67 65 62 60
34 33 32 31 30 31 30 27 23 19 14 11 10 10 9 10 11 13 14 15 17 17 17 18 18 20 21 26 34 29 20 19 19 18 19 20 20 20 21 23 25 29 29 29 33 38 40 41 43 45 49 51 52 50 48 53 58 58 71 81 72 61 57 57 59 61 62 63 65 69 74 75 69 64 70 71 68 71 73 72 70 69 69 67 65 63 62 59
34 32 32 32 32 33 31 26 19 14 11 10 10 9 9 10 11 13 15 16 17 17 18 18 19 22 24 32 39 27 20 22 19 19 20 20 22 21 23 24 25 29 27 26 29 33 36 37 39 43 48 51 50 50 50 54 59 65 73 72 64 60 58 57 59 63 64 64 65 65 70 74 69 66 69 67 67 70 72 72 70 69 66 63 63 61 59 58
34 33 33 33 34 32 28 22 16 13 12 10 9 9 9 10 12 14 15 16 16 17 19 19 20 22 25 34 36 24 21 23 21 22 21 21 23 23 24 24 24 26 25 28 29 30 33 36 39 45 49 48 48 52 54 56 65 75 78 72 68 66 63 59 60 65 65 64 62 60 67 73 69 69 70 70 72 72 74 74 70 68 67 63 61 60 60 61
34 34 35 34 33 29 24 19 15 14 12 11 9 8 9 10 13 14 15 16 16 18 19 20 20 21 27 31 26 23 25 26 24 24 24 23 24 23 24 24 23 24 23 26 27 29 32 35 41 46 46 47 51 55 57 60 70 80 83 79 75 71 70 66 64 64 63 62 61 63 69 72 71 72 72 76 83 81 78 77 72 68 69 66 62 63 63 62
35 36 35 33 29 24 21 19 17 15 13 12 10 8 9 10 13 14 15 15 16 18 19 21 20 23 31 28 21 24 27 27 28 28 27 27 26 25 25 24 24 24 24 24 25 29 32 34 41 45 44 48 53 58 62 67 74 79 82 83 80 76 72 69 67 65 63 63 64 66 71 73 72 74 74 76 81 84 84 84 78 70 71 71 66 67 65 63
38 36 33 28 23 21 21 20 18 16 14 13 10 9 9 10 13 14 15 15 16 18 19 19 19 26 35 28 22 25 26 28 29 29 30 30 28 28 28 26 25 25 25 26 28 30 32 35 41 45 46 50 54 60 65 67 71 75 81 82 82 81 75 69 67 65 63 63 63 65 69 71 69 69 71 74 76 81 85 83 78 73 73 74 71 68 67 66
37 31 27 23 21 22 22 20 19 17 15 13 11 9 9 10 12 14 15 15 16 18 18 20 24 33 39 30 24 24 26 31 30 30 32 29 29 30 30 28 26 27 26 27 31 31 32 37 43 45 47 51 57 64 68 67 69 75 81 82 82 83 80 74 68 65 62 61 63 64 66 68 67 66 68 71 75 79 77 72 75 78 75 75 75 70 68 68
31 24 22 22 22 23 22 20 18 16 15 14 11 9 9 10 12 14 15 15 16 17 19 27 35 40 38 30 26 26 29 32 30 30 30 28 29 29 31 31 29 29 30 31 33 34 37 43 49 50 49 52 57 65 69 68 68 76 77 75 81 81 78 75 67 64 62 61 64 63 63 66 64 63 65 66 69 72 70 66 72 77 74 74 74 69 68 66
22 21 22 23 23 22 22 19 17 16 15 14 12 9 9 11 13 15 15 16 17 18 22 33 43 45 39 29 26 29 32 31 29 29 29 27 28 30 34 34 31 34 40 41 38 39 43 49 53 54 51 53 57 60 63 60 63 75 75 69 75 73 68 70 65 61 60 61 63 62 62 65 61 61 63 64 66 66 66 65 68 72 71 71 72 67 64 62
18 21 23 23 23 23 21 19 17 17 16 16 15 11 12 13 14 16 16 18 18 20 25 32 40 43 36 28 27 30 31 29 28 29 28 28 29 33 36 36 36 42 50 50 43 43 47 50 52 53 53 55 58 57 56 57 59 68 69 64 67 63 60 65 63 60 60 61 64 64 64 63 61 62 62 62 64 65 64 64 65 67 68 70 70 65 61 58
18 22 23 23 24 23 20 19 18 19 19 18 15 14 15 14 15 17 16 20 22 22 27 30 34 40 36 31 30 30 29 28 29 30 30 30 30 33 37 41 44 46 50 50 46 46 49 51 50 49 50 50 53 54 52 58 60 60 62 61 64 62 59 61 61 59 61 64 65 65 66 65 64 62 60 60 61 61 60 60 61 63 66 67 63 62 61 54
20 23 24 24 24 22 20 20 21 21 20 20 18 21 23 17 16 19 17 23 28 28 36 36 33 40 42 36 31 28 28 27 28 31 31 30 30 34 40 46 47 44 44 45 48 49 47 50 48 44 46 45 47 50 49 53 56 55 56 60 70 71 63 60 61 60 60 64 65 63 63 66 67 63 60 60 58 57 57 56 58 59 62 62 59 60 56 48
21 24 24 25 23 22 22 23 25 25 25 29 32 35 37 29 25 25 21 27 31 31 41 40 30 36 40 35 30 29 29 30 32 31 31 31 33 38 42 42 43 43 42 44 50 53 48 48 44 39 41 40 39 42 45 51 52 52 55 59 68 72 68 63 60 61 64 64 64 64 64 65 66 64 62 61 56 56 57 55 55 55 56 58 58 55 50 46
23 24 24 24 23 24 26 27 29 28 28 37 42 44 44 36 31 30 28 33 33 31 40 37 29 34 36 30 29 30 34 38 37 33 31 33 35 37 38 36 39 43 43 45 49 49 47 44 38 35 36 35 36 35 40 52 53 50 53 58 61 61 66 67 61 62 65 63 63 65 66 67 65 64 63 61 57 57 57 56 56 53 54 56 55 52 50 49
23 24 25 24 24 28 30 28 28 28 31 38 40 40 40 37 35 33 35 41 37 32 39 37 31 36 34 28 28 31 36 40 40 34 31 33 33 35 37 36 39 42 42 44 44 42 43 40 32 30 31 32 37 38 38 45 49 48 49 53 54 51 56 60 58 63 66 62 61 63 68 71 67 66 65 62 60 58 57 57 58 57 56 55 53 53 53 51
22 25 25 24 28 31 29 29 29 30 35 39 39 38 38 38 38 38 42 48 43 36 38 36 35 38 32 27 29 31 33 35 36 33 30 32 32 33 37 36 38 41 41 41 39 39 43 38 27 25 27 28 35 43 42 39 43 48 46 45 46 43 48 54 57 68 75 70 62 58 69 74 68 67 67 64 64 62 59 59 61 60 57 56 54 54 55 53
23 25 25 27 31 30 30 33 32 31 37 41 38 39 39 37 38 44 50 54 49 38 33 32 36 35 29 27 30 33 35 33 30 29 28 31 29 30 36 37 36 37 36 37 37 37 37 32 24 23 26 26 29 39 41 35 38 47 45 43 43 41 45 50 55 68 79 79 67 58 67 72 66 66 66 64 65 66 65 63 62 60 57 57 57 57 58 57
23 23 25 29 30 30 33 36 34 37 43 42 36 38 38 36 39 45 54 60 52 38 32 33 37 34 29 30 32 37 41 36 28 25 27 31 30 30 36 39 41 37 32 37 42 39 32 28 26 24 27 31 33 37 38 30 33 44 44 42 45 44 44 45 51 61 66 69 68 58 61 70 69 67 66 63 63 65 65 62 61 59 57 57 58 61 63 61
23 23 26 31 30 32 35 35 38 45 46 39 36 41 38 36 41 46 59 65 49 36 36 33 31 30 27 28 30 36 41 37 34 28 25 28 31 32 35 37 40 39 33 39 46 40 32 30 30 28 30 37 39 38 35 30 33 39 38 39 44 45 45 44 48 57 55 57 69 65 57 67 71 63 61 62 62 64 62 58 58 58 55 57 59 63 65 62
23 23 26 30 30 33 34 34 38 42 39 35 37 41 37 38 45 49 63 62 39 34 37 29 27 27 24 26 28 32 36 36 38 33 24 26 30 32 33 32 34 37 35 36 38 35 29 26 29 31 34 38 40 38 33 32 37 39 35 37 41 40 42 44 47 55 57 56 68 70 59 64 71 65 61 60 59 63 62 58 57 55 53 55 59 60 63 62
23 23 27 29 31 34 35 35 35 35 35 34 37 38 36 42 47 52 61 55 37 35 34 28 28 25 23 29 30 30 31 32 33 30 25 26 29 29 30 30 32 36 37 33 30 30 27 25 28 30 33 35 35 34 31 30 36 37 33 36 41 40 41 46 47 54 63 63 63 65 60 58 66 68 63 60 58 60 60 58 58 56 53 55 55 55 59 61
23 25 27 30 34 35 35 36 34 33 33 33 35 35 38 45 50 54 56 47 39 37 31 28 26 23 27 35 36 32 30 30 27 25 26 27 27 29 31 35 36 36 41 40 35 33 33 32 31 29 31 34 34 33 31 29 32 34 38 44 48 49 49 53 59 59 62 63 59 58 56 55 63 66 59 57 59 59 58 58 57 54 52 53 53 54 56 59
23 26 28 31 35 35 36 37 34 33 34 33 34 37 44 53 56 56 51 46 46 40 32 31 28 28 33 36 38 35 31 33 30 27 31 32 31 35 37 41 42 45 51 50 44 41 37 33 32 31 32 35 39 42 38 35 36 40 48 54 54 56 56 60 71 70 60 56 54 52 54 57 61 59 52 51 55 56 56 57 55 51 50 50 51 53 55 55
24 27 28 31 35 36 37 37 34 33 32 32 36 42 49 58 63 59 50 48 49 41 34 33 31 33 34 34 36 34 32 35 33 32 34 35 38 41 39 40 42 49 55 51 47 49 46 38 36 36 36 35 39 46 47 45 46 49 56 59 56 56 56 54 61 65 58 55 53 47 48 55 56 53 51 51 53 54 54 54 53 50 48 49 50 52 54 54
25 27 29 32 34 36 36 35 35 33 31 34 41 46 49 56 63 58 51 50 45 38 33 29 30 33 33 35 35 30 32 35 31 31 34 34 36 37 37 39 38 41 50 51 50 52 52 49 42 37 37 37 38 43 47 48 50 51 55 58 56 57 57 53 53 59 61 57 52 44 45 54 57 55 53 51 50 50 50 51 52 52 50 49 51 54 53 54
26 27 30 32 33 35 34 34 35 32 31 37 45 51 55 62 66 61 60 54 40 34 31 26 30 31 29 35 33 25 32 39 30 28 34 35 37 38 38 41 37 34 43 51 52 47 46 47 41 31 30 34 39 38 38 46 51 50 52 55 53 52 55 53 49 52 55 55 53 49 47 52 53 48 44 44 45 43 46 51 51 53 54 50 51 52 52 53
26 28 30 31 32 34 34 36 36 33 34 40 50 57 59 63 66 64 62 51 38 35 30 26 32 34 33 35 32 25 30 36 30 28 34 36 39 42 38 36 33 30 35 43 47 45 46 48 39 28 28 32 36 35 36 46 50 47 53 53 46 44 49 54 50 44 43 49 56 55 54 55 53 51 46 42 44 40 41 49 53 55 55 51 51 49 49 52
27 30 32 32 33 34 35 37 38 36 36 41 51 59 61 59 61 62 55 43 38 36 32 32 36 37 40 38 35 30 27 30 28 28 35 37 36 37 31 30 30 27 29 34 38 40 43 47 37 27 31 32 27 28 34 38 39 43 48 45 40 39 42 47 49 49 49 51 55 57 60 62 60 60 53 45 48 47 39 43 51 53 52 50 52 49 48 50
28 32 32 32 35 38 38 39 39 38 37 41 49 58 62 59 56 58 51 38 34 34 34 42 42 37 40 40 38 34 27 31 31 29 36 38 36 34 29 28 29 26 25 28 34 35 34 41 38 27 29 31 23 25 33 33 31 35 35 31 35 41 47 51 50 54 60 56 55 58 60 62 62 62 54 45 49 49 41 41 47 50 51 50 51 50 50 51
28 32 31 31 36 39 38 38 38 37 37 40 49 57 61 61 55 51 45 35 35 37 39 46 44 37 40 41 39 36 30 33 34 32 37 39 38 37 31 28 29 29 26 23 30 33 27 36 42 30 25 27 22 25 36 39 36 35 32 32 35 36 45 52 46 48 54 51 52 57 56 57 59 59 55 47 46 48 46 46 48 50 50 50 50 51 51 51
27 32 36 36 36 36 35 33 35 38 38 43 53 57 57 63 57 43 36 33 36 40 40 41 41 39 40 38 37 37 34 33 34 35 38 37 37 37 32 27 27 29 27 22 27 32 27 32 40 32 23 24 25 28 37 41 41 42 40 42 44 40 40 44 43 48 49 47 56 62 57 54 54 56 59 55 52 51 49 50 52 51 48 49 52 49 49 50
26 32 39 40 37 35 32 31 34 38 40 47 56 55 53 60 55 37 31 32 33 37 36 33 34 35 37 37 37 37 36 34 34 34 35 36 35 33 30 27 25 26 27 24 26 30 29 30 35 30 24 29 33 30 30 30 30 35 36 36 42 42 39 41 45 47 46 48 58 61 55 53 53 54 59 61 57 51 48 51 55 55 51 51 51 48 48 50
28 34 41 41 37 35 31 30 34 37 42 51 56 54 50 51 46 36 30 30 31 33 30 27 27 29 32 35 36 35 34 35 36 34 35 37 34 30 29 27 24 25 27 28 28 28 29 32 34 31 28 32 33 25 24 23 19 22 24 24 28 32 32 36 41 43 43 45 47 48 49 53 53 53 56 60 57 51 48 51 55 57 54 51 50 48 47 48
29 35 42 40 35 33 30 32 36 39 44 48 50 51 48 42 38 33 28 27 28 28 26 25 24 25 28 29 29 30 28 30 33 31 30 31 29 27 27 24 21 22 26 34 34 30 28 30 33 37 36 31 26 22 25 26 20 20 24 25 25 27 28 30 32 34 35 34 35 40 47 50 50 51 52 52 50 48 47 47 51 56 55 53 54 50 46 45
29 36 41 41 35 31 31 35 41 46 49 47 48 51 48 40 35 32 28 27 27 26 27 26 23 23 24 23 22 23 23 22 24 22 21 22 22 22 22 20 20 23 29 36 36 30 29 30 35 44 45 37 32 31 32 35 29 25 29 30 28 28 28 28 29 29 30 33 36 40 47 49 49 49 50 47 48 52 50 44 48 54 53 54 56 51 47 45
29 33 38 41 37 29 29 37 47 53 52 51 54 54 49 41 34 31 31 29 26 26 27 28 25 22 21 20 19 20 20 18 20 20 18 18 20 19 18 17 21 27 31 32 31 31 33 35 39 46 51 53 53 48 43 42 36 30 31 30 26 27 29 29 31 37 42 44 45 46 50 53 49 45 47 48 49 52 46 41 45 48 46 48 49 48 47 45
32 34 36 39 36 28 27 36 49 53 52 53 56 55 51 44 35 28 28 27 25 23 23 25 25 20 19 22 21 21 20 17 19 20 17 18 22 21 17 18 21 26 29 27 28 30 32 36 38 41 49 58 59 52 45 39 34 31 33 31 25 23 24 25 32 41 44 43 44 49 52 52 50 48 48 46 45 45 41 39 42 44 43 43 42 43 48 49
36 38 38 38 38 32 27 34 45 52 54 56 55 52 50 45 37 28 24 25 26 24 20 19 22 22 23 23 24 24 23 20 20 20 19 21 24 21 19 20 21 24 25 24 26 28 31 37 39 38 41 47 46 40 34 32 31 30 31 29 25 22 22 26 34 37 36 37 43 47 46 45 50 54 50 44 39 40 40 39 41 44 43 41 40 41 45 48
35 39 39 39 40 38 34 36 44 49 53 54 52 51 49 46 39 29 23 24 24 23 21 18 19 25 26 22 23 26 24 24 25 23 22 26 26 23 22 23 23 22 22 23 25 26 33 42 43 40 39 39 34 28 25 26 27 27 29 28 26 27 28 30 32 29 27 34 43 43 38 40 50 55 49 41 37 37 39 39 41 44 41 39 41 43 44 46
33 39 42 39 38 40 42 45 47 49 52 55 54 52 49 46 39 30 27 27 23 22 24 22 20 24 25 22 25 31 29 28 28 26 26 29 28 28 28 29 28 22 19 25 25 24 33 43 42 38 38 37 32 26 24 27 26 26 28 28 28 30 32 30 28 24 25 30 32 31 32 38 46 48 43 38 35 34 35 36 37 38 37 38 42 45 45 45
35 41 46 43 39 41 46 50 51 52 53 53 54 51 48 45 39 32 30 29 26 27 25 22 23 25 24 21 25 32 32 28 26 24 25 30 32 32 33 33 31 24 22 26 26 24 30 36 33 31 34 38 36 29 26 28 30 30 30 30 29 29 33 35 31 27 31 35 31 30 36 42 42 41 38 35 34 33 32 32 32 32 35 38 41 43 45 45
39 41 45 45 43 41 44 51 53 53 51 48 48 49 47 44 38 33 31 28 28 32 28 25 29 30 25 20 22 28 27 25 26 23 23 28 31 33 35 32 29 28 29 29 27 26 27 27 27 29 31 37 39 34 28 27 30 33 33 34 32 30 36 43 38 30 31 37 39 40 46 48 43 39 36 32 32 33 31 30 30 32 36 38 38 38 40 40
38 39 42 43 43 41 41 48 50 49 49 48 48 48 46 43 37 33 35 30 26 30 31 28 30 31 27 21 20 24 22 21 26 25 21 25 27 27 28 27 26 29 33 32 28 28 31 30 29 29 28 34 38 34 30 32 35 37 37 37 36 36 38 40 38 34 29 32 41 47 48 46 43 39 35 30 31 35 35 33 33 35 36 36 33 32 33 34